JH5HTX-13 Weather Reports


time (UTC)temp
C
wind
direction
speed
KPH
gust
KPH
rain 1hr
cm
rain 24hr
cm
rain mn
cm
humidity
%
barometer
mb
20260509113233 16 202 0.0 0.0 0.00 0.00 0.00 61 1017.9
20260509111733 17 202 0.0 0.0 0.00 0.00 0.00 60 1017.5
20260509110233 17 202 0.0 0.0 0.00 0.00 0.00 59 1017.4
20260509104733 17 202 0.0 0.0 0.00 0.00 0.00 57 1017.2
20260509103233 18 202 0.0 0.0 0.00 0.00 0.00 56 1017.0
20260509101732 18 202 0.0 0.0 0.00 0.00 0.00 54 1016.9
20260509100232 20 202 0.0 0.0 0.00 0.00 0.00 50 1016.7
20260509094732 21 202 0.0 0.0 0.00 0.00 0.00 48 1016.5
20260509093232 22 202 0.0 0.0 0.00 0.00 0.00 47 1016.3
20260509091732 23 225 0.0 0.0 0.00 0.00 0.00 45 1016.2
20260509090232 23 202 0.0 0.0 0.00 0.00 0.00 44 1016.3
20260509084732 24 180 0.0 0.0 0.00 0.00 0.00 43 1016.1
20260509083232 23 225 0.0 0.0 0.00 0.00 0.00 41 1016.1
20260509081732 23 202 0.0 0.0 0.00 0.00 0.00 41 1016.0
20260509080232 23 225 0.0 0.0 0.00 0.00 0.00 41 1015.9
20260509074731 24 248 0.0 0.0 0.00 0.00 0.00 42 1015.9
20260509073231 24 292 0.0 0.0 0.00 0.00 0.00 41 1015.7
20260509071731 23 315 0.0 0.0 0.00 0.00 0.00 42 1015.6
20260509070231 23 45 0.0 0.0 0.00 0.00 0.00 39 1015.8
20260509064731 23 292 0.0 0.0 0.00 0.00 0.00 41 1015.9
20260509063231 23 315 0.0 0.0 0.00 0.00 0.00 41 1016.1
20260509061731 23 315 0.0 0.0 0.00 0.00 0.00 42 1016.1
20260509060231 23 22 0.0 0.0 0.00 0.00 0.00 42 1016.2
20260509054731 23 270 0.0 0.0 0.00 0.00 0.00 43 1016.4
20260509053230 23 225 0.0 0.0 0.00 0.00 0.00 42 1016.5
20260509051730 22 180 0.0 0.0 0.00 0.00 0.00 43 1016.4
20260509050230 22 248 0.0 0.0 0.00 0.00 0.00 45 1016.5
20260509044730 22 0 0.0 0.0 0.00 0.00 0.00 45 1016.8
20260509043230 21 22 0.0 0.0 0.00 0.00 0.00 45 1017.0
20260509041730 21 158 0.0 0.0 0.00 0.00 0.00 45 1017.3
20260509040230 21 0 0.0 0.0 0.00 0.00 0.00 45 1017.3
20260509034730 21 225 0.0 0.0 0.00 0.00 0.00 45 1017.5
20260509033230 20 68 0.0 0.0 0.00 0.00 0.00 46 1017.6
20260509031730 20 22 0.0 0.0 0.00 0.00 0.00 45 1017.8
20260509030229 20 315 0.0 0.0 0.00 0.00 0.00 46 1017.9
20260509025506 20 332 0.0 0.0 0.00 0.00 0.00 48 1018.0
20260509024006 20 265 0.0 0.0 0.00 0.00 0.00 48 1018.1
20260509022506 20 315 0.0 0.0 0.00 0.00 0.00 47 1018.3
20260509021006 19 259 0.0 0.0 0.00 0.00 0.00 48 1018.4
20260509015506 19 304 0.0 0.0 0.00 0.00 0.00 50 1018.7
20260509014005 18 1 0.0 0.0 0.00 0.00 0.00 51 1018.9
20260509012505 18 237 0.0 0.0 0.00 0.00 0.00 52 1018.8
20260509011005 18 22 0.0 0.0 0.00 0.00 0.00 52 1019.0
20260509005505 17 300 0.0 0.0 0.00 0.00 0.00 54 1019.0
20260509004005 17 243 0.0 0.0 0.00 0.00 0.00 54 1019.1
20260509002505 17 234 0.0 0.0 0.00 0.00 0.00 56 1019.2
20260509001005 17 190 0.0 0.0 0.00 0.00 0.00 57 1019.1
20260508235505 16 180 0.0 0.0 0.00 0.00 0.00 58 1019.2
20260508234005 16 158 0.0 0.0 0.00 0.00 0.00 60 1019.2
20260508232505 16 22 0.0 0.0 0.00 0.00 0.00 62 1019.2
20260508231004 15 135 0.0 0.0 0.00 0.00 0.00 66 1019.1
20260508225504 15 135 0.0 0.0 0.00 0.00 0.00 71 1019.0
20260508224004 14 202 0.0 0.0 0.00 0.00 0.00 75 1018.9
20260508222504 13 225 0.0 0.0 0.00 0.00 0.00 78 1019.0
20260508221004 13 225 0.0 0.0 0.00 0.00 0.00 80 1018.8
20260508215504 12 225 0.0 0.0 0.00 0.00 0.00 81 1018.6
20260508214004 12 248 0.0 0.0 0.00 0.00 0.00 82 1018.4
20260508212504 11 248 0.0 0.0 0.00 0.00 0.00 82 1018.2
20260508211004 11 248 0.0 0.0 0.00 0.00 0.00 81 1018.2
20260508205504 11 248 0.0 0.0 0.00 0.00 0.00 80 1018.1
20260508204003 11 248 0.0 0.0 0.00 0.00 0.00 79 1017.9
20260508202503 11 248 0.0 0.0 0.00 0.00 0.00 79 1017.9
20260508201003 11 248 0.0 0.0 0.00 0.00 0.00 78 1017.7
20260508195503 11 248 0.0 0.0 0.00 0.00 0.00 77 1017.5
20260508194003 11 248 0.0 0.0 0.00 0.00 0.00 76 1017.3
20260508192503 11 248 0.0 0.0 0.00 0.00 0.00 74 1017.1
20260508191003 12 248 0.0 0.0 0.00 0.00 0.00 73 1016.9
20260508185503 12 248 0.0 0.0 0.00 0.00 0.00 72 1016.8
20260508184003 12 248 0.0 0.0 0.00 0.00 0.00 71 1016.5
20260508182502 13 270 0.0 0.0 0.00 0.00 0.00 68 1016.3
20260508181002 13 270 0.0 0.0 0.00 0.00 0.00 68 1016.3
20260508175502 13 270 0.0 0.0 0.00 0.00 0.00 67 1016.0
20260508174002 14 292 0.0 0.0 0.00 0.00 0.00 66 1015.9
20260508172502 14 315 0.0 0.0 0.00 0.00 0.00 64 1015.7
20260508171002 15 315 0.0 0.0 0.00 0.00 0.00 63 1015.9
20260508165502 14 315 0.0 0.0 0.00 0.00 0.00 64 1015.9
20260508164002 13 202 0.0 0.0 0.00 0.00 0.00 64 1015.8
20260508162502 13 180 0.0 0.0 0.00 0.00 0.00 64 1015.5
20260508161001 14 180 0.0 0.0 0.00 0.00 0.00 62 1015.6
20260508155501 14 180 0.0 0.0 0.00 0.00 0.00 60 1015.3
20260508154001 15 180 0.0 0.0 0.00 0.00 0.00 56 1015.1
20260508152501 16 303 0.0 0.0 0.00 0.00 0.00 53 1015.1